CW6164 Weather Reports


Display with metric or nautical units.
time (UTC)temp
F
wind
direction
speed
MPH
gust
MPH
rain 1hr
in
rain 24hr
in
rain mn
in
humidity
%
barometer
mb
20260905234545 83 30 2.0 10.0 0.00 0.00 0.00 72 1011.9
20260905234024 84 79 4.0 10.0 0.00 0.00 0.00 70 1011.9
20260905233518 85 79 4.0 10.0 0.00 0.00 0.00 70 1012.0
20260905233040 87 84 4.0 10.0 0.00 0.00 0.00 70 1012.0
20260905232521 87 64 2.0 5.0 0.00 0.00 0.00 72 1012.0
20260905232022 87 355 1.0 4.0 0.00 0.00 0.00 73 1012.0
20260905231540 87 5 1.0 5.0 0.00 0.00 0.00 71 1012.0
20260905231020 87 308 2.0 5.0 0.00 0.00 0.00 70 1012.0
20260905230524 87 306 1.0 5.0 0.00 0.00 0.00 70 1012.0
20260905230042 88 0 2.0 5.0 0.00 0.00 0.00 69 1011.9
20260905225522 88 343 2.0 5.0 0.00 0.00 0.00 68 1012.0
20260905225018 88 327 2.0 6.0 0.00 0.00 0.00 67 1011.9
20260905224538 88 325 2.0 9.0 0.00 0.00 0.00 66 1011.8
20260905224020 88 330 3.0 9.0 0.00 0.00 0.00 66 1011.5
20260905223518 89 311 3.0 9.0 0.00 0.00 0.00 66 1011.4
20260905223039 89 297 1.0 5.0 0.00 0.00 0.00 66 1011.4
20260905222528 89 316 2.0 5.0 0.00 0.00 0.00 66 1011.5
20260905222020 89 293 1.0 4.0 0.00 0.00 0.00 67 1011.6
20260905221546 88 0 0.0 3.0 0.00 0.00 0.00 67 1011.5
20260905221023 88 284 1.0 3.0 0.00 0.00 0.00 67 1011.7
20260905220523 88 282 1.0 3.0 0.00 0.00 0.00 68 1011.4
20260905220044 88 0 1.0 3.0 0.00 0.00 0.00 67 1011.2
20260905215520 88 0 0.0 6.0 0.00 0.00 0.00 66 1011.2
20260905215021 88 250 1.0 7.0 0.00 0.00 0.00 66 1011.3
20260905214545 89 5 2.0 7.0 0.00 0.00 0.00 65 1011.4
20260905214020 89 279 1.0 4.0 0.00 0.00 0.00 64 1011.5
20260905213520 89 283 1.0 5.0 0.00 0.00 0.00 63 1011.7
20260905213046 89 292 1.0 5.0 0.00 0.00 0.00 63 1011.4
20260905212526 89 268 2.0 4.0 0.00 0.00 0.00 62 1011.5
20260905212023 89 280 2.0 4.0 0.00 0.00 0.00 62 1011.7
20260905211543 90 249 1.0 4.0 0.00 0.00 0.00 62 1011.4
20260905211025 90 282 1.0 5.0 0.00 0.00 0.00 61 1011.7
20260905210524 90 248 2.0 5.0 0.00 0.00 0.00 61 1011.9
20260905210040 91 281 2.0 5.0 0.00 0.00 0.00 60 1011.8
20260905205522 91 294 1.0 5.0 0.00 0.00 0.00 59 1011.9
20260905205020 91 292 1.0 3.0 0.00 0.00 0.00 60 1012.1
20260905204548 92 0 0.0 5.0 0.00 0.00 0.00 59 1012.0
20260905204025 93 286 2.0 5.0 0.00 0.00 0.00 57 1012.0
20260905203523 92 285 2.0 6.0 0.00 0.00 0.00 57 1012.1
20260905203044 92 205 2.0 6.0 0.00 0.00 0.00 59 1012.1
20260905202519 92 213 2.0 6.0 0.00 0.00 0.00 58 1012.3
20260905202019 92 284 2.0 6.0 0.00 0.00 0.00 58 1012.3
20260905201545 92 214 1.0 4.0 0.00 0.00 0.00 58 1012.4
20260905201019 92 146 1.0 5.0 0.00 0.00 0.00 59 1012.4
20260905200520 91 277 0.0 5.0 0.00 0.00 0.00 59 1012.4
20260905200052 92 296 1.0 5.0 0.00 0.00 0.00 58 1012.4
20260905195521 92 277 1.0 5.0 0.00 0.00 0.00 58 1012.5
20260905195019 92 320 2.0 5.0 0.00 0.00 0.00 57 1012.5
20260905194547 91 259 1.0 4.0 0.00 0.00 0.00 60 1012.5
20260905194024 90 217 1.0 6.0 0.00 0.00 0.00 59 1012.7
20260905193519 91 0 2.0 6.0 0.00 0.00 0.00 59 1012.7
20260905193052 92 304 2.0 6.0 0.00 0.00 0.00 56 1012.7
20260905192518 92 306 2.0 10.0 0.00 0.00 0.00 58 1012.8
20260905192021 92 115 2.0 10.0 0.00 0.00 0.00 58 1012.8
20260905191544 92 289 2.0 5.0 0.00 0.00 0.00 56 1012.9
20260905191018 92 275 1.0 8.0 0.00 0.00 0.00 56 1013.1
20260905190517 92 184 2.0 8.0 0.00 0.00 0.00 57 1013.2
20260905190043 92 302 2.0 8.0 0.00 0.00 0.00 58 1013.2
20260905185519 91 300 2.0 5.0 0.00 0.00 0.00 59 1013.2
20260905185026 91 240 2.0 10.0 0.00 0.00 0.00 57 1013.3
20260905184543 91 285 1.0 10.0 0.00 0.00 0.00 59 1013.5
20260905184023 91 294 3.0 10.0 0.00 0.00 0.00 58 1013.5
20260905183523 91 222 2.0 8.0 0.00 0.00 0.00 57 1013.4
20260905183042 91 219 1.0 8.0 0.00 0.00 0.00 58 1013.5
20260905182518 91 213 1.0 5.0 0.00 0.00 0.00 58 1013.5
20260905182020 91 180 2.0 7.0 0.00 0.00 0.00 58 1013.7
20260905181541 90 207 2.0 8.0 0.00 0.00 0.00 57 1013.6
20260905181017 90 199 3.0 8.0 0.00 0.00 0.00 57 1013.7
20260905180518 90 184 2.0 7.0 0.00 0.00 0.00 58 1013.8
20260905180044 90 167 1.0 7.0 0.00 0.00 0.00 59 1013.8
20260905175523 90 237 1.0 8.0 0.00 0.00 0.00 58 1013.8
20260905175019 89 193 1.0 8.0 0.00 0.00 0.00 60 1013.9
20260905174542 89 259 2.0 8.0 0.00 0.00 0.00 60 1013.8
20260905174018 89 227 2.0 8.0 0.00 0.00 0.00 57 1013.9
20260905173518 89 282 1.0 7.0 0.00 0.00 0.00 59 1014.0
20260905173039 88 185 2.0 6.0 0.00 0.00 0.00 60 1014.1
20260905172520 88 235 2.0 8.0 0.00 0.00 0.00 61 1014.1
20260905172021 88 149 2.0 8.0 0.00 0.00 0.00 62 1014.2
20260905171540 87 208 2.0 9.0 0.00 0.00 0.00 61 1014.2
20260905171017 87 0 3.0 9.0 0.00 0.00 0.00 61 1014.3
20260905170523 86 238 2.0 7.0 0.00 0.00 0.00 62 1014.4
20260905170047 86 163 2.0 9.0 0.00 0.00 0.00 61 1014.4
20260905165520 87 265 3.0 9.0 0.00 0.00 0.00 60 1014.5
20260905165018 86 201 2.0 8.0 0.00 0.00 0.00 62 1014.6
20260905164541 86 288 3.0 9.0 0.00 0.00 0.00 62 1014.7
20260905164019 86 281 2.0 9.0 0.00 0.00 0.00 62 1014.7
20260905163525 85 301 2.0 6.0 0.00 0.00 0.00 66 1015.0
20260905163041 85 168 1.0 8.0 0.00 0.00 0.00 65 1015.0
20260905162524 85 171 1.0 8.0 0.00 0.00 0.00 64 1014.9
20260905162024 84 282 2.0 7.0 0.00 0.00 0.00 64 1014.9
20260905161541 84 143 2.0 7.0 0.00 0.00 0.00 63 1014.8
20260905161023 84 230 2.0 5.0 0.00 0.00 0.00 66 1014.9
20260905160521 83 0 1.0 7.0 0.00 0.00 0.00 65 1014.9
20260905160046 83 242 3.0 8.0 0.00 0.00 0.00 64 1015.1
20260905155518 83 184 2.0 8.0 0.00 0.00 0.00 65 1014.9
20260905155019 83 171 2.0 7.0 0.00 0.00 0.00 67 1014.7
20260905154542 83 238 1.0 6.0 0.00 0.00 0.00 67 1015.0
20260905154020 83 234 2.0 7.0 0.00 0.00 0.00 67 1015.1
20260905153518 82 187 2.0 7.0 0.00 0.00 0.00 68 1015.1
20260905153041 82 257 2.0 7.0 0.00 0.00 0.00 67 1015.2
20260905152523 82 266 2.0 7.0 0.00 0.00 0.00 68 1015.1
20260905152023 82 229 2.0 10.0 0.00 0.00 0.00 68 1015.0
20260905151543 81 243 2.0 10.0 0.00 0.00 0.00 68 1015.0
20260905151021 81 268 4.0 10.0 0.00 0.00 0.00 69 1015.0
20260905150522 80 200 2.0 8.0 0.00 0.00 0.00 69 1014.9
20260905150044 80 158 2.0 8.0 0.00 0.00 0.00 69 1015.0
20260905145521 80 120 2.0 7.0 0.00 0.00 0.00 72 1015.0
20260905145020 79 149 3.0 7.0 0.00 0.00 0.00 71 1015.1
20260905144547 80 267 1.0 9.0 0.00 0.00 0.00 72 1015.1
20260905144017 79 223 2.0 9.0 0.00 0.00 0.00 70 1015.0
20260905143519 79 176 2.0 8.0 0.00 0.00 0.00 71 1015.1
20260905143049 78 0 2.0 8.0 0.00 0.00 0.00 73 1015.2
20260905142517 78 252 3.0 9.0 0.00 0.00 0.00 72 1015.1
20260905142023 78 267 2.0 10.0 0.00 0.00 0.00 73 1015.1
20260905141538 78 261 3.0 10.0 0.00 0.00 0.00 74 1015.2
20260905141026 78 149 1.0 7.0 0.00 0.00 0.00 74 1015.1
20260905140524 77 189 2.0 7.0 0.00 0.00 0.00 74 1015.1
20260905140041 77 258 2.0 5.0 0.00 0.00 0.00 75 1015.4
20260905135518 77 139 1.0 7.0 0.00 0.00 0.00 76 1015.3
20260905135020 76 236 2.0 7.0 0.00 0.00 0.00 75 1015.3
20260905134539 77 157 2.0 7.0 0.00 0.00 0.00 76 1015.2
20260905134025 76 135 1.0 7.0 0.00 0.00 0.00 77 1015.3
20260905133527 76 227 2.0 7.0 0.00 0.00 0.00 77 1015.3
20260905133041 76 196 1.0 7.0 0.00 0.00 0.00 77 1015.4
20260905132521 76 315 1.0 7.0 0.00 0.00 0.00 77 1015.4
20260905132026 75 188 1.0 6.0 0.00 0.00 0.00 78 1015.3
20260905131548 75 146 1.0 6.0 0.00 0.00 0.00 79 1015.3
20260905131024 75 174 1.0 7.0 0.00 0.00 0.00 80 1015.3
20260905130520 74 243 0.0 7.0 0.00 0.00 0.00 80 1015.3
20260905130040 74 164 2.0 7.0 0.00 0.00 0.00 80 1015.2
20260905125527 73 211 1.0 5.0 0.00 0.00 0.00 81 1015.1
20260905125023 73 0 1.0 4.0 0.00 0.00 0.00 81 1015.3
20260905124543 73 148 1.0 5.0 0.00 0.00 0.00 82 1015.4
20260905124025 73 0 0.0 5.0 0.00 0.00 0.00 83 1015.4
20260905123520 72 143 1.0 5.0 0.00 0.00 0.00 83 1015.3
20260905123041 72 0 1.0 5.0 0.00 0.00 0.00 84 1015.4
20260905122519 72 156 2.0 5.0 0.00 0.00 0.00 84 1015.4
20260905122018 71 229 1.0 6.0 0.00 0.00 0.00 85 1015.3
20260905121539 71 158 2.0 6.0 0.00 0.00 0.00 85 1015.4
20260905121023 71 181 1.0 4.0 0.00 0.00 0.00 86 1015.6
20260905120518 71 0 0.0 4.0 0.00 0.00 0.00 86 1015.5
20260905120042 71 205 1.0 5.0 0.00 0.00 0.00 87 1015.3
20260905115522 71 202 1.0 5.0 0.00 0.00 0.00 87 1015.2
20260905115021 71 93 1.0 5.0 0.00 0.00 0.00 87 1015.3
20260905114545 71 119 1.0 4.0 0.00 0.00 0.00 87 1015.2
20260905114020 71 47 1.0 7.0 0.00 0.00 0.00 88 1015.2
20260905113523 71 161 1.0 7.0 0.00 0.00 0.00 88 1015.1
20260905113041 71 165 2.0 7.0 0.00 0.00 0.00 88 1015.2
20260905112518 71 88 1.0 9.0 0.00 0.00 0.00 90 1015.2
20260905112018 71 126 3.0 9.0 0.00 0.00 0.00 91 1015.0
20260905111548 70 148 3.0 11.0 0.00 0.00 0.00 92 1015.0
20260905111020 70 0 1.0 11.0 0.00 0.00 0.00 93 1014.9
20260905110522 70 153 1.0 11.0 0.00 0.00 0.00 94 1015.0
20260905110042 70 156 3.0 15.0 0.00 0.00 0.00 94 1015.2
20260905105518 71 170 6.0 15.0 0.00 0.00 0.00 94 1015.2
20260905105018 73 155 6.0 13.0 0.00 0.00 0.00 95 1015.0
20260905104538 74 0 0.0 0.0 0.00 0.00 0.00 96 1014.8
20260905104018 74 0 0.0 0.0 0.00 0.00 0.00 96 1014.4
20260905103518 74 0 0.0 0.0 0.00 0.00 0.00 96 1013.8
20260905103039 74 0 0.0 0.0 0.00 0.00 0.00 96 1013.7
20260905102519 74 0 0.0 0.0 0.00 0.00 0.00 96 1013.8
20260905102021 74 0 0.0 0.0 0.00 0.00 0.00 96 1013.8
20260905101544 74 0 0.0 0.0 0.00 0.00 0.00 96 1013.8
20260905101022 74 0 0.0 0.0 0.00 0.00 0.00 96 1013.8
20260905100523 74 0 0.0 0.0 0.00 0.00 0.00 96 1013.7
20260905100042 74 0 0.0 0.0 0.00 0.00 0.00 96 1013.7
20260905095517 74 0 0.0 0.0 0.00 0.00 0.00 96 1013.7
20260905095017 74 0 0.0 0.0 0.00 0.00 0.00 96 1013.6
20260905094539 74 0 0.0 0.0 0.00 0.00 0.00 95 1013.4
20260905094021 74 0 0.0 0.0 0.00 0.00 0.00 96 1013.4
20260905093520 74 0 0.0 0.0 0.00 0.00 0.00 95 1013.4
20260905093042 74 0 0.0 0.0 0.00 0.00 0.00 96 1013.5
20260905092519 74 0 0.0 0.0 0.00 0.00 0.00 96 1013.5
20260905092016 74 0 0.0 0.0 0.00 0.00 0.00 95 1013.3
20260905091535 74 0 0.0 0.0 0.00 0.00 0.00 95 1013.5
20260905091022 74 0 0.0 0.0 0.00 0.00 0.00 95 1013.6
20260905090521 74 0 0.0 0.0 0.00 0.00 0.00 95 1013.6
20260905090038 74 0 0.0 0.0 0.00 0.00 0.00 95 1013.5
20260905085525 74 0 0.0 0.0 0.00 0.00 0.00 95 1013.5
20260905085022 74 0 0.0 0.0 0.00 0.00 0.00 95 1013.5
20260905084547 74 0 0.0 0.0 0.00 0.00 0.00 95 1013.6
20260905084021 74 0 0.0 0.0 0.00 0.00 0.00 95 1013.7
20260905083519 74 0 0.0 0.0 0.00 0.00 0.00 95 1013.6
20260905083039 75 0 0.0 0.0 0.00 0.00 0.00 95 1013.6
20260905082524 74 0 0.0 0.0 0.00 0.00 0.00 95 1013.4
20260905082025 74 0 0.0 0.0 0.00 0.00 0.00 95 1013.3
20260905081542 75 0 0.0 0.0 0.00 0.00 0.00 95 1013.2
20260905081020 74 0 0.0 0.0 0.00 0.00 0.00 94 1013.1
20260905080523 74 0 0.0 0.0 0.00 0.00 0.00 94 1012.9
20260905080045 74 0 0.0 0.0 0.00 0.00 0.00 94 1012.8
20260905075519 74 0 0.0 0.0 0.00 0.00 0.00 94 1012.8
20260905075019 74 0 0.0 0.0 0.00 0.00 0.00 94 1012.7
20260905074541 75 0 0.0 0.0 0.00 0.00 0.00 94 1012.7
20260905074023 75 0 0.0 0.0 0.00 0.00 0.00 94 1012.8
20260905073518 75 0 0.0 0.0 0.00 0.00 0.00 94 1012.8
20260905073039 75 0 0.0 0.0 0.00 0.00 0.00 94 1012.8
20260905072521 75 0 0.0 0.0 0.00 0.00 0.00 94 1012.6
20260905072018 75 0 0.0 0.0 0.00 0.00 0.00 94 1012.6
20260905071542 75 0 0.0 0.0 0.00 0.00 0.00 94 1012.7
20260905071020 75 0 0.0 0.0 0.00 0.00 0.00 94 1012.8
20260905070517 75 0 0.0 0.0 0.00 0.00 0.00 94 1012.8
20260905070040 75 0 0.0 0.0 0.00 0.00 0.00 94 1012.9
20260905065518 75 0 0.0 0.0 0.00 0.00 0.00 94 1012.9
20260905065021 75 0 0.0 0.0 0.00 0.00 0.00 94 1013.0
20260905064546 75 0 0.0 0.0 0.00 0.00 0.00 94 1013.2
20260905064023 75 0 0.0 0.0 0.00 0.00 0.00 94 1013.3
20260905063518 75 0 0.0 0.0 0.00 0.00 0.00 94 1013.4
20260905063047 74 0 0.0 0.0 0.00 0.00 0.00 94 1013.5
20260905062522 74 0 0.0 0.0 0.00 0.00 0.00 94 1013.5
20260905062020 74 0 0.0 0.0 0.00 0.00 0.00 94 1013.6
20260905061549 75 0 0.0 0.0 0.00 0.00 0.00 94 1013.5
20260905061020 75 0 0.0 0.0 0.00 0.00 0.00 94 1013.6
20260905060520 74 0 0.0 0.0 0.00 0.00 0.00 94 1013.7
20260905060041 74 0 0.0 0.0 0.00 0.00 0.00 94 1013.7
20260905055518 74 0 0.0 0.0 0.00 0.00 0.00 94 1013.8
20260905055020 74 0 0.0 0.0 0.00 0.00 0.00 94 1013.9
20260905054540 74 0 0.0 0.0 0.00 0.00 0.00 94 1013.8
20260905054016 75 0 0.0 0.0 0.00 0.00 0.00 93 1013.9
20260905053519 75 0 0.0 0.0 0.00 0.00 0.00 94 1014.0
20260905053037 75 0 0.0 0.0 0.00 0.00 0.00 93 1013.9
20260905052524 75 0 0.0 0.0 0.00 0.00 0.00 93 1013.9
20260905052019 75 0 0.0 0.0 0.00 0.00 0.00 93 1013.9
20260905051545 75 0 0.0 0.0 0.00 0.00 0.00 93 1013.9
20260905051017 75 0 0.0 0.0 0.00 0.00 0.00 93 1014.0
20260905050522 75 0 0.0 0.0 0.00 0.00 0.00 93 1014.0
20260905050041 75 0 0.0 0.0 0.00 0.00 0.00 93 1014.0
20260905045518 75 0 0.0 0.0 0.00 0.00 0.00 93 1014.1
20260905045017 75 0 0.0 0.0 0.00 0.00 0.00 93 1014.0
20260905044541 75 0 0.0 0.0 0.00 0.00 0.00 93 1014.1
20260905044016 75 0 0.0 0.0 0.00 0.00 0.00 93 1014.0
20260905043517 75 0 0.0 0.0 0.00 0.00 0.00 93 1014.1
20260905043041 75 0 0.0 0.0 0.00 0.00 0.00 93 1014.1
20260905042517 75 0 0.0 0.0 0.00 0.00 0.00 93 1014.1
20260905042019 76 0 0.0 0.0 0.00 0.00 0.00 93 1014.2
20260905041538 76 0 0.0 0.0 0.00 0.00 0.00 93 1014.3
20260905041020 75 0 0.0 0.0 0.00 0.00 0.00 92 1014.2
20260905040519 75 0 0.0 0.0 0.00 0.00 0.00 92 1014.2
20260905040042 76 0 0.0 0.0 0.00 0.00 0.00 92 1014.2
20260905035520 76 0 0.0 0.0 0.00 0.00 0.00 92 1014.1
20260905035019 76 0 0.0 0.0 0.00 0.00 0.00 92 1014.1
20260905034539 76 0 0.0 0.0 0.00 0.00 0.00 92 1014.2
20260905034018 76 0 0.0 0.0 0.00 0.00 0.00 92 1014.2
20260905033522 76 0 0.0 0.0 0.00 0.00 0.00 91 1014.3
20260905033038 76 0 0.0 0.0 0.00 0.00 0.00 91 1014.3
20260905032518 76 0 0.0 0.0 0.00 0.00 0.00 91 1014.3
20260905032021 76 0 0.0 0.0 0.00 0.00 0.00 91 1014.3
20260905031538 77 0 0.0 0.0 0.00 0.00 0.00 91 1014.4
20260905031020 77 0 0.0 0.0 0.00 0.00 0.00 90 1014.4
20260905030520 77 0 0.0 0.0 0.00 0.00 0.00 90 1014.4
20260905030042 77 0 0.0 0.0 0.00 0.00 0.00 89 1014.3
20260905025519 77 0 0.0 0.0 0.00 0.00 0.00 89 1014.3
20260905025023 77 0 0.0 0.0 0.00 0.00 0.00 89 1014.2
20260905024539 77 0 0.0 0.0 0.00 0.00 0.00 89 1014.3
20260905024024 77 0 0.0 0.0 0.00 0.00 0.00 88 1014.3
20260905023519 77 0 0.0 0.0 0.00 0.00 0.00 88 1014.3
20260905023042 78 0 0.0 0.0 0.00 0.00 0.00 88 1014.4
20260905022520 78 0 0.0 0.0 0.00 0.00 0.00 88 1014.3
20260905022021 78 0 0.0 0.0 0.00 0.00 0.00 88 1014.3
20260905021541 78 0 0.0 0.0 0.00 0.00 0.00 88 1014.3
20260905021017 78 0 0.0 0.0 0.00 0.00 0.00 88 1014.3
20260905020520 78 0 0.0 0.0 0.00 0.00 0.00 87 1014.3
20260905020055 78 0 0.0 0.0 0.00 0.00 0.00 86 1014.2
20260905015518 79 0 0.0 0.0 0.00 0.00 0.00 85 1014.2
20260905015022 79 0 0.0 0.0 0.00 0.00 0.00 85 1014.1
20260905014538 79 0 0.0 0.0 0.00 0.00 0.00 85 1014.1
20260905014020 80 0 0.0 0.0 0.00 0.00 0.00 84 1014.0
20260905013521 80 0 0.0 0.0 0.00 0.00 0.00 82 1014.0
20260905013042 80 0 0.0 0.0 0.00 0.00 0.00 83 1014.0
20260905012521 80 0 0.0 0.0 0.00 0.00 0.00 83 1014.0
20260905012021 80 0 0.0 0.0 0.00 0.00 0.00 82 1013.9
20260905011541 80 0 0.0 0.0 0.00 0.00 0.00 82 1013.9
20260905011020 81 0 0.0 0.0 0.00 0.00 0.00 82 1013.8
20260905010518 81 0 0.0 0.0 0.00 0.00 0.00 81 1013.8
20260905010040 82 0 0.0 0.0 0.00 0.00 0.00 81 1013.8
20260905005527 82 0 0.0 0.0 0.00 0.00 0.00 80 1013.7
20260905005025 82 0 0.0 0.0 0.00 0.00 0.00 79 1013.6
20260905004552 83 0 0.0 0.0 0.00 0.00 0.00 78 1013.6
20260905004018 83 0 0.0 0.0 0.00 0.00 0.00 79 1013.6
20260905003521 83 0 0.0 1.0 0.00 0.00 0.00 80 1013.7
20260905003038 84 0 0.0 6.0 0.00 0.00 0.00 79 1013.6
20260905002524 85 0 0.0 7.0 0.00 0.00 0.00 78 1013.8
20260905002022 85 279 1.0 7.0 0.00 0.00 0.00 78 1013.8
20260905001540 85 96 3.0 6.0 0.00 0.00 0.00 79 1013.7
20260905001026 85 0 0.0 3.0 0.00 0.00 0.00 78 1013.7
20260905000524 85 0 0.0 2.0 0.00 0.00 0.00 79 1013.6
20260905000043 85 0 0.0 2.0 0.00 0.00 0.00 78 1013.7
20260904235522 86 0 0.0 2.0 0.00 0.00 0.00 75 1013.7
20260904235022 88 0 0.0 3.0 0.00 0.00 0.00 71 1013.6